Regional Weather Roundup
Issued by NWS

Home | Current Version | Previous Version | Text Only | Print | Product List | Glossary Off
Versions: 1 2 3 4 5 6 7 8 9 10 11 12 13 14 15 16 17 18 19 20 21 22 23 24 25 26 27 28 29 30 31 32 33 34 35 36 37 38 39 40 41 42 43 44 45 46 47 48 49 50

000
ASUS43 KDMX 030607
RWRIA

WEATHER ROUNDUP FOR IOWA
NATIONAL WEATHER SERVICE DES MOINES IA
100 AM CDT SUN MAY 03 2015

NOTE: "FAIR" INDICATES FEW OR NO CLOUDS BELOW 12,000 FEET WITH NO
SIGNIFICANT WEATHER AND/OR OBSTRUCTIONS TO VISIBILITY.

* - THESE STATIONS ARE NOT NWS STATIONS...THUS NOT UNDER NWS
QUALITY CONTROL.  THEY ALSO DO NOT REPORT WEATHER SUCH
AS PRECIPITATION OR FOG.

IAZ001>003-012>014-020>022-031>034-043>046-030700-
   NORTHWEST IOWA

CITY           SKY/WX    TMP DP  RH WIND       PRES   REMARKS
CARROLL *      CLEAR     63  54  72 S21G30    29.77F
CHEROKEE *     CLOUDY    58  54  85 SE6       29.74F
DENISON *      CLEAR     64  57  77 S16G24    29.73F
LE MARS *      CLEAR     63  55  77 SE10G18   29.72S
ORANGE CITY *  CLEAR     57  52  82 SE6       29.73S
SHELDON *      CLEAR     61  55  82 SE13      29.73S
SIOUX CITY     CLOUDY    63  55  75 SE8       29.71F
6HR MIN TEMP:  62; 6HR MAX TEMP:  76;

SPENCER        PTCLDY    60  53  77 SE12      29.76F
6HR MIN TEMP:  60; 6HR MAX TEMP:  74;

STORM LAKE *   CLEAR     57  52  82 SE13      29.77S
$$

IAZ055>058-069>071-079>083-090>094-030700-
   SOUTHWEST IOWA

CITY           SKY/WX    TMP DP  RH WIND       PRES   REMARKS
ATLANTIC *     PTCLDY    64  54  68 SW14G21   29.83R
AUDUBON *      CLEAR     63  55  77 S14G22    29.81S
CLARINDA *     PTCLDY    63  54  72 S10       29.86R
COUNCIL BLFS * LGT RAIN  61  61 100 SW9G15    29.91R
CRESTON *      PTCLDY    59  54  82 S17       29.85F
HARLAN  *      MOCLDY    66  57  72 S26G40    29.80F
LAMONI         CLOUDY    59  52  77 S13       29.87F
6HR MIN TEMP:  59; 6HR MAX TEMP:  64;

RED OAK *      MOCLDY    63  55  77 S12       29.84R
SHENANDOAH *   CLOUDY    64  55  72 SE15      29.83F
$$

IAZ047>049-059>061-072>074-084-030700-
   CENTRAL IOWA

CITY           SKY/WX    TMP DP  RH WIND       PRES   REMARKS
AMES           TSTM      57  54  89 S14G24    29.83F
6HR MIN TEMP:  57; 6HR MAX TEMP:  65; 6HR PCP:  0.27;

ANKENY *       MOCLDY    59  52  77 S12       29.83F
CHARITON *     CLEAR     57  50  77 S13       29.86F
DES MOINES     CLOUDY    60  50  69 S12       29.84F
6HR MIN TEMP:  58; 6HR MAX TEMP:  65;

GRINNELL*      PTCLDY    57  52  82 SE14      29.88F
KNOXVILLE *    CLEAR     57  48  72 S10       29.84F
MARSHALLTOWN   MOCLDY    60  49  66 S13       29.86S
6HR MIN TEMP:  57; 6HR MAX TEMP:  66;

PELLA *        PTCLDY    58  52  81 SE8       29.88F
PERRY *          N/A     59  53  79 S9        29.82R
$$

IAZ004>006-015-016-023>025-035-036-030700-
   NORTH CENTRAL IOWA

CITY           SKY/WX    TMP DP  RH WIND       PRES   REMARKS
ALGONA *       MOCLDY    57  54  88 S14       29.80F
CLARION *      CLEAR     57  52  82 S15       29.82F
ESTHERVILLE    CLEAR     57  51  80 S21       29.76F
6HR MIN TEMP:  56; 6HR MAX TEMP:  73;

FORT DODGE *   MOCLDY    59  52  77 S10G17    29.81F
MASON CITY     PTCLDY    56  50  80 SE9       29.85F
6HR MIN TEMP:  55; 6HR MAX TEMP:  72;

FOREST CITY *  PTCLDY    54  48  82 SE8       29.83F
IOWA FALLS *     N/A     57  50  77 S13       29.86F
$$

IAZ007>011-017>019-026>030-037>042-050>054-066-030700-
   NORTHEAST IOWA

CITY           SKY/WX    TMP DP  RH WIND       PRES   REMARKS
CEDAR RAPIDS     N/A    N/A N/A N/A MISG        N/A
CHARLES CITY * CLOUDY    61  54  77 S13       29.87S
CLINTON *        N/A     57  48  72 S9        29.97F
DECORAH *      CLOUDY    57  52  82 S12       29.88S
DUBUQUE        LGT RAIN  57  52  83 S12       29.93F
6HR MIN TEMP:  53; 6HR MAX TEMP:  69; 6HR PCP:  0.03;

MONTICELLO *   PTCLDY    59  52  77 SE6       29.92S
OELWEIN *      CLOUDY    59  54  82 SE12      29.89F
WATERLOO       PTCLDY    59  51  75 S13       29.86F
6HR MIN TEMP:  59; 6HR MAX TEMP:  69;

$$

IAZ064-065-067-068-078-030700-
   EAST CENTRAL IOWA

CITY           SKY/WX    TMP DP  RH WIND       PRES   REMARKS
DAVENPORT      CLOUDY    61  47  59 S7        29.96S
6HR MIN TEMP:  60; 6HR MAX TEMP:  70;

IOWA CITY      CLOUDY    57  52  83 SE6       29.94R
6HR MIN TEMP:  57; 6HR MAX TEMP:  67;

MT. PLEASANT * PTCLDY    55  49  80 SE9       29.94F
MUSCATINE *    CLOUDY    61  52  72 CALM      29.94S
QUAD CITIES    MOCLDY    62  46  55 S6        29.95S
6HR MIN TEMP:  61; 6HR MAX TEMP:  70; 6HR PCP:  0.01;

$$

IAZ062-063-075>077-085>089-095>099-030700-
   SOUTHEAST IOWA

CITY           SKY/WX    TMP DP  RH WIND       PRES   REMARKS
BURLINGTON     MOCLDY    58  50  75 E3        29.96R
6HR MIN TEMP:  58; 6HR MAX TEMP:  66; 6HR PCP: TRACE;

FAIRFIELD *    MOCLDY    55  50  82 SE10      29.92F
FORT MADISON * MOCLDY    61  48  63 S7        29.96R
KEOKUK *       PTCLDY    61  50  67 SE7       29.94S
OSKALOOSA *      N/A     56  50  82 SE8       29.90S
CENTERVILLE *  CLEAR     55  52  88 SE10      29.91F
OTTUMWA        PTCLDY    57  50  77 S14       29.89F
6HR MIN TEMP:  56; 6HR MAX TEMP:  60;

WASHINGTON *   MOCLDY    59  55  88 S10       29.92S
$$

ABBREVIATIONS USED IN REMARKS
   TC - TEMPERATURES IN CELSIUS
  WCI - WIND CHILL INDEX
   HX - HEAT INDEX
  VSB - VISIBILITY
$$



USA.gov is the U.S. government's official web portal to all federal, state and local government web resources and services.